This demonstration page uses our WeatherBlox Daily Observations layout. Learn more.

Left ArrowRight Arrow

Hourly Observations for June 1, 2016

Temp ( °F °C ) Dew Point ( °F °C ) Humidity (%) Winds ( mph kmh ) Pressure ( in mb ) Visibility ( mi km ) Precip ( " mm )
12:54 am 00:54 Mostly Cloudy 65 18.3 53 11.7 66 66 Calm 29.97 1015 10 16.0934 0 0
1:54 am 01:54 Clear 63 17.2 52 11.1 68 68 W 3 6 29.96 1015 10 16.0934 0 0
2:54 am 02:54 Clear 63 17.2 49 9.4 60 60 NNW 12 19 29.97 1015 10 16.0934 0 0
3:54 am 03:54 Clear 58 14.4 49 9.4 72 72 NNW 7 11 29.99 1016 10 16.0934 0 0
4:54 am 04:54 Clear 60 15.6 48 8.9 65 65 NNW 6 9 29.99 1016 10 16.0934 0 0
5:54 am 05:54 Clear 59 15 48 8.9 67 67 NW 6 9 30.02 1017 10 16.0934 0 0
6:54 am 06:54 Sunny 59 15 49 9.4 69 69 NW 3 6 30.02 1017 10 16.0934 0 0
7:54 am 07:54 Sunny 62 16.7 49 9.4 62 62 WNW 5 7 30.04 1017 10 16.0934 0 0
8:54 am 08:54 Sunny 65 18.3 49 9.4 56 56 NNW 9 15 30.05 1018 10 16.0934 0 0
9:54 am 09:54 Mostly Sunny 70 21.1 50 10 49 49 undefined N/A 30.06 1018 N/A 0 0
10:54 am 10:54 Sunny 71 21.7 48 8.9 44 44 NW 8 13 30.06 1018 N/A 0 0
11:54 am 11:54 Sunny 74 23.3 50 10 43 43 VRB 6 9 30.05 1018 10 16.0934 0 0
12:54 pm 12:54 Sunny 75 23.9 47 8.3 37 37 VRB 6 9 30.04 1017 10 16.0934 0 0
1:54 pm 13:54 Sunny 76 24.4 47 8.3 36 36 Calm 30.03 1017 10 16.0934 0 0
2:54 pm 14:54 Sunny 78 25.6 49 9.4 36 36 N 7 11 30.02 1017 10 16.0934 0 0
3:54 pm 15:54 Sunny 78 25.6 48 8.9 35 35 VRB 5 7 30.01 1016 10 16.0934 0 0
4:54 pm 16:54 Sunny 79 26.1 47 8.3 32 32 Calm 29.99 1016 10 16.0934 0 0
5:54 pm 17:54 Sunny 79 26.1 46 7.8 31 31 VRB 3 6 29.98 1015 10 16.0934 0 0
6:54 pm 18:54 Sunny 79 26.1 45 7.2 30 30 Calm 29.97 1015 10 16.0934 0 0
7:54 pm 19:54 Sunny 78 25.6 46 7.8 32 32 WSW 3 6 29.98 1015 10 16.0934 0 0
8:54 pm 20:54 Clear 73 22.8 49 9.4 43 43 Calm 30 1016 10 16.0934 0 0
9:54 pm 21:54 Clear 73 22.8 48 8.9 41 41 Calm 30.02 1017 10 16.0934 0 0
10:54 pm 22:54 Clear 67 19.4 51 10.6 57 57 Calm 30.04 1017 10 16.0934 0 0
11:54 pm 23:54 Mostly Cloudy 61 16.1 53 11.7 75 75 N 5 7 30.04 1017 10 16.0934 0 0

Powered by AerisWeather